This is the latest recevied weather packets stored in our database for station/object KB9HUO. If no packets are shown the sender has not sent any weather packets the latest 10 day(s).
| Time | Temp. | Humidity | Pressure | Rain* | Wind** | Luminosity | Snow |
|---|---|---|---|---|---|---|---|
| 1777909580 | 21.11° C | 60% | 1009.9 hPa | 0 mm | - | 414 W/m² | - |
| 1777909277 | 20.56° C | 62% | 1009.9 hPa | 0 mm | - | 603 W/m² | - |
| 1777908976 | 20.56° C | 64% | 1009.9 hPa | 0 mm | - | 654 W/m² | - |
| 1777908674 | 20.56° C | 63% | 1010 hPa | 0 mm | - | 685 W/m² | - |
| 1777908370 | 20° C | 64% | 1010.1 hPa | 0 mm | - | 650 W/m² | - |
| 1777908066 | 19.44° C | 67% | 1010 hPa | 0 mm | - | 648 W/m² | - |
| 1777907762 | 18.89° C | 69% | 1010.2 hPa | 0 mm | - | 634 W/m² | - |
| 1777907456 | 18.33° C | 69% | 1010.2 hPa | 0 mm | - | 622 W/m² | - |
| 1777907154 | 17.78° C | 72% | 1010.5 hPa | 0 mm | - | 228 W/m² | - |
| 1777906852 | 17.78° C | 72% | 1010.6 hPa | 0 mm | - | 147 W/m² | - |
| 1777906549 | 17.22° C | 74% | 1010.6 hPa | 0 mm | - | 155 W/m² | - |
| 1777906244 | 17.22° C | 75% | 1010.4 hPa | 0 mm | - | 186 W/m² | - |
| 1777905941 | 16.67° C | 76% | 1010.5 hPa | 0 mm | - | 200 W/m² | - |
| 1777905637 | 16.67° C | 76% | 1010.4 hPa | 0 mm | - | 123 W/m² | - |
| 1777905335 | 16.67° C | 76% | 1010.5 hPa | 0 mm | - | 113 W/m² | - |
| 1777905032 | 16.11° C | 77% | 1010.5 hPa | 0 mm | - | 130 W/m² | - |
| 1777904729 | 16.11° C | 77% | 1010.5 hPa | 0 mm | - | 153 W/m² | - |
| 1777904426 | 15.56° C | 77% | 1010.3 hPa | 0 mm | - | 128 W/m² | - |
| 1777904123 | 15.56° C | 79% | 1010.6 hPa | 0 mm | - | 146 W/m² | - |
| 1777903820 | 15.56° C | 79% | 1010.7 hPa | 0 mm | - | 125 W/m² | - |
| 1777903516 | 15.56° C | 79% | 1010.6 hPa | 0 mm | - | 96 W/m² | - |
| 1777903213 | 16.11° C | 77% | 1010.7 hPa | 0 mm | - | 136 W/m² | - |
| 1777902909 | 15.56° C | 79% | 1010.6 hPa | 0 mm | - | 112 W/m² | - |
| 1777902606 | 15.56° C | 79% | 1010.7 hPa | 0 mm | - | 75 W/m² | - |
| 1777902303 | 16.11° C | 79% | 1010.4 hPa | 0 mm | - | 78 W/m² | - |
* Rain latest hour (hover to see other rain measurements)
** Current wind speed in m/s (hover to see current wind gust speed)